Location: Campolattaro
(41.2833°N, 14.7333°E)
Time: 00:20:04
(UTC+00:00)

Okean O Rocket - Pass Details

Date: 19 May 2025
Orbit: 614 x 636 km, 98.0° (Epoch: 15 June)

Event Time Altitude Azimuth Distance (km) Brightness Sun altitude
Exits shadow 19:57:25 13° 188° (S) 1,784 3.6 -15.9°
Maximum altitude 20:01:04 47° 261° (W) 829 2.4 -16.4°
Drops below altitude 10° 20:05:17 10° 335° (NNW) 2,001 5.3 -16.9°
Sets 20:07:32 0° 342° (NNW) 2,909 6.3 -17.2°
